Satoro-T3

operational
NORAD ID: 64589 Int'l Des: 2025-135 Owner: SATORO Country: TW
LEOCIRCULARRETROGRADESSO

About Satoro-T3

Description loading...

Live Position

Loading 3D Globe...

Upcoming Passes

Altitude History

Altitude vs Time

uPlot chart will show altitude changes over time

Two-Line Element Set

1 64589U 25135BP 25315.25711387 .00004796 00000-0 46659-3 0 9997
2 64589 97.7566 67.4563 0004418 355.1140 5.0035 14.93007138 21373
Epoch: Nov 11, 2025 • Age: 27 hours

Current Status

Altitude 596.5 km
Velocity 7.56 km/s
Sub-Earth Point -10.65°S, 63.99°E
Launch Date Jun 23, 2025
Age 0.3 years
Type other

Technical Details

Classification Payload
Mass 4.00 kg
Dry Mass 4.00 kg
Total Mass 4.00 kg
Length 0.30 m
Diameter 0.10 m
Span 0.30 m
Shape Box
Manufacturer SATORO
Bus Type Cubesat 3U
Phase Status In Orbit
Owner/State SATORO/TW

Large Constellations

Loading constellations...